| time (UTC) | temp F | wind direction | speed knots | gust knots | rain 1hr in | rain 24hr in | rain mn in | humidity % | barometer mb |
| 20260507081519 | 47 | 360 | 0.0 | 4.3 | 0.00 | 0.35 | 0.00 | 95 | 1005.0 |
| 20260507080016 | 47 | 360 | 0.9 | 4.3 | 0.00 | 0.35 | 0.00 | 95 | 1004.6 |
| 20260507074515 | 47 | 360 | 0.9 | 7.8 | 0.00 | 0.35 | 0.00 | 95 | 1004.2 |
| 20260507073012 | 47 | 360 | 0.9 | 5.2 | 0.00 | 0.35 | 0.00 | 95 | 1004.3 |
| 20260507071508 | 48 | 360 | 0.0 | 2.6 | 0.00 | 0.35 | 0.00 | 96 | 1004.3 |
| 20260507070011 | 48 | 360 | 1.7 | 6.1 | 0.00 | 0.35 | 0.00 | 96 | 1004.2 |
| 20260507064506 | 48 | 360 | 0.9 | 6.1 | 0.00 | 0.35 | 0.00 | 97 | 1003.9 |
| 20260507063005 | 48 | 360 | 0.0 | 3.5 | 0.00 | 0.35 | 0.00 | 97 | 1003.7 |
| 20260507061603 | 48 | 360 | 1.7 | 4.3 | 0.00 | 0.35 | 0.00 | 97 | 1004.1 |
| 20260507060104 | 49 | 360 | 0.0 | 4.3 | 0.00 | 0.35 | 0.00 | 97 | 1003.8 |
| 20260507054615 | 49 | 360 | 0.0 | 4.3 | 0.00 | 0.35 | 0.00 | 97 | 1003.6 |
| 20260507053107 | 49 | 360 | 1.7 | 7.8 | 0.00 | 0.35 | 0.00 | 97 | 1003.7 |
| 20260507051558 | 49 | 360 | 1.7 | 4.3 | 0.00 | 0.35 | 0.00 | 97 | 1003.6 |
| 20260507050056 | 50 | 360 | 1.7 | 7.0 | 0.00 | 0.35 | 0.00 | 97 | 1003.6 |
| 20260507044556 | 50 | 360 | 0.9 | 7.0 | 0.01 | 0.35 | 0.00 | 97 | 1003.7 |
| 20260507043046 | 51 | 360 | 1.7 | 6.1 | 0.03 | 0.35 | 0.00 | 97 | 1003.5 |
| 20260507041557 | 52 | 360 | 0.0 | 5.2 | 0.03 | 0.35 | 0.00 | 97 | 1003.1 |
| 20260507040043 | 52 | 360 | 0.9 | 6.1 | 0.03 | 0.35 | 0.00 | 97 | 1003.3 |
| 20260507034539 | 53 | 360 | 0.9 | 6.1 | 0.03 | 0.34 | 0.14 | 97 | 1003.3 |
| 20260507033038 | 53 | 360 | 2.6 | 7.0 | 0.01 | 0.32 | 0.12 | 97 | 1003.3 |
| 20260507031537 | 54 | 360 | 1.7 | 10.4 | 0.02 | 0.32 | 0.12 | 98 | 1003.2 |
| 20260507030031 | 55 | 360 | 1.7 | 7.0 | 0.03 | 0.32 | 0.12 | 98 | 1002.8 |
| 20260507024533 | 57 | 360 | 2.6 | 7.8 | 0.02 | 0.31 | 0.11 | 98 | 1002.7 |
| 20260507023023 | 58 | 258 | 0.9 | 6.1 | 0.02 | 0.31 | 0.11 | 98 | 1002.7 |
| 20260507021530 | 58 | 239 | 2.6 | 7.0 | 0.01 | 0.30 | 0.10 | 98 | 1002.7 |
| 20260507020023 | 58 | 233 | 2.6 | 9.6 | 0.00 | 0.28 | 0.09 | 98 | 1002.7 |
| 20260507014523 | 58 | 231 | 3.5 | 7.8 | 0.00 | 0.28 | 0.09 | 98 | 1002.8 |
| 20260507013022 | 58 | 230 | 3.5 | 10.4 | 0.00 | 0.28 | 0.09 | 98 | 1002.7 |
| 20260507011523 | 59 | 224 | 3.5 | 7.8 | 0.00 | 0.28 | 0.09 | 98 | 1002.8 |
| 20260507010119 | 59 | 251 | 4.3 | 9.6 | 0.00 | 0.28 | 0.09 | 98 | 1002.7 |
| 20260507004518 | 59 | 246 | 5.2 | 14.8 | 0.00 | 0.28 | 0.09 | 98 | 1002.8 |
| 20260507003016 | 59 | 232 | 4.3 | 8.7 | 0.00 | 0.28 | 0.09 | 98 | 1002.8 |
| 20260507001516 | 59 | 223 | 4.3 | 10.4 | 0.00 | 0.28 | 0.09 | 98 | 1002.7 |
| 20260507000022 | 59 | 225 | 4.3 | 10.4 | 0.00 | 0.28 | 0.09 | 98 | 1002.6 |
| 20260506234514 | 59 | 193 | 4.3 | 12.2 | 0.00 | 0.28 | 0.09 | 98 | 1002.7 |
| 20260506233014 | 59 | 232 | 4.3 | 16.5 | 0.00 | 0.28 | 0.09 | 98 | 1002.8 |
| 20260506231516 | 59 | 227 | 5.2 | 10.4 | 0.00 | 0.28 | 0.09 | 98 | 1002.7 |
| 20260506230010 | 59 | 188 | 4.3 | 12.2 | 0.00 | 0.28 | 0.09 | 98 | 1002.7 |
| 20260506224509 | 59 | 201 | 4.3 | 9.6 | 0.00 | 0.28 | 0.09 | 98 | 1002.9 |
| 20260506223006 | 59 | 173 | 4.3 | 12.2 | 0.01 | 0.28 | 0.09 | 98 | 1003.0 |
| 20260506221506 | 59 | 182 | 5.2 | 14.8 | 0.01 | 0.28 | 0.09 | 98 | 1003.1 |
| 20260506220004 | 60 | 210 | 5.2 | 13.0 | 0.02 | 0.28 | 0.09 | 98 | 1003.1 |
| 20260506214601 | 60 | 206 | 2.6 | 7.0 | 0.03 | 0.28 | 0.09 | 98 | 1003.4 |
| 20260506213101 | 60 | 197 | 2.6 | 11.3 | 0.03 | 0.28 | 0.08 | 98 | 1003.4 |
| 20260506211557 | 60 | 204 | 5.2 | 8.7 | 0.05 | 0.28 | 0.08 | 98 | 1003.5 |
| 20260506210055 | 60 | 207 | 2.6 | 6.1 | 0.06 | 0.27 | 0.07 | 97 | 1003.7 |
| 20260506204553 | 60 | 142 | 2.6 | 7.0 | 0.06 | 0.26 | 0.06 | 98 | 1003.8 |
| 20260506203052 | 60 | 202 | 0.9 | 4.3 | 0.05 | 0.25 | 0.05 | 97 | 1003.9 |
| 20260506201550 | 61 | 186 | 0.9 | 3.5 | 0.03 | 0.23 | 0.03 | 97 | 1003.9 |
| 20260506200047 | 61 | 198 | 0.0 | 2.6 | 0.01 | 0.21 | 0.01 | 97 | 1003.7 |
| 20260506193006 | 61 | 216 | 0.9 | 5.2 | 0.13 | 0.28 | 0.28 | 96 | 1004.1 |
| 20260506191505 | 61 | 201 | 2.6 | 7.8 | 0.20 | 0.27 | 0.27 | 96 | 1004.4 |
| 20260506190005 | 61 | 220 | 0.9 | 6.1 | 0.19 | 0.20 | 0.20 | 95 | 1004.6 |
| 20260506184504 | 61 | 225 | 2.6 | 8.7 | 0.16 | 0.16 | 0.16 | 94 | 1004.5 |
| 20260506183003 | 62 | 257 | 4.3 | 9.6 | 0.14 | 0.14 | 0.14 | 93 | 1004.9 |
| 20260506181608 | 63 | 360 | 2.6 | 7.0 | 0.07 | 0.07 | 0.07 | 88 | 1004.8 |
| 20260506180059 | 66 | 198 | 1.7 | 7.0 | 0.01 | 0.01 | 0.01 | 78 | 1004.5 |
| 20260506174558 | 68 | 360 | 2.6 | 7.0 | 0.00 | 0.00 | 0.00 | 70 | 1004.1 |
| 20260506173126 | 69 | 215 | 4.3 | 12.2 | 0.00 | 0.00 | 0.00 | 67 | 1004.2 |
| 20260506171558 | 69 | 239 | 4.3 | 9.6 | 0.00 | 0.00 | 0.00 | 69 | 1004.2 |
| 20260506170106 | 69 | 219 | 4.3 | 9.6 | 0.00 | 0.00 | 0.00 | 69 | 1004.5 |
| 20260506164552 | 68 | 215 | 4.3 | 7.0 | 0.00 | 0.00 | 0.00 | 70 | 1004.8 |
| 20260506163055 | 68 | 247 | 3.5 | 11.3 | 0.00 | 0.00 | 0.00 | 71 | 1005.1 |
| 20260506161546 | 68 | 190 | 4.3 | 8.7 | 0.00 | 0.00 | 0.00 | 72 | 1005.5 |
| 20260506160044 | 67 | 217 | 3.5 | 13.0 | 0.00 | 0.00 | 0.00 | 73 | 1006.0 |
| 20260506154603 | 67 | 197 | 4.3 | 13.0 | 0.00 | 0.00 | 0.00 | 73 | 1006.2 |
| 20260506153039 | 67 | 221 | 5.2 | 8.7 | 0.00 | 0.00 | 0.00 | 74 | 1006.5 |
| 20260506151539 | 67 | 238 | 5.2 | 10.4 | 0.00 | 0.00 | 0.00 | 74 | 1006.2 |
| 20260506150039 | 66 | 215 | 3.5 | 7.8 | 0.00 | 0.00 | 0.00 | 75 | 1006.5 |
| 20260506144542 | 66 | 190 | 2.6 | 6.1 | 0.00 | 0.00 | 0.00 | 77 | 1006.3 |
| 20260506143034 | 65 | 211 | 4.3 | 8.7 | 0.00 | 0.00 | 0.00 | 78 | 1006.4 |
| 20260506141531 | 65 | 186 | 3.5 | 7.8 | 0.00 | 0.00 | 0.00 | 78 | 1006.2 |
| 20260506140033 | 64 | 360 | 2.6 | 5.2 | 0.00 | 0.00 | 0.00 | 80 | 1006.3 |
| 20260506134528 | 63 | 240 | 3.5 | 7.0 | 0.00 | 0.00 | 0.00 | 80 | 1006.6 |
| 20260506133034 | 63 | 218 | 1.7 | 6.1 | 0.00 | 0.00 | 0.00 | 81 | 1006.7 |
| 20260506131526 | 63 | 235 | 2.6 | 6.1 | 0.00 | 0.00 | 0.00 | 81 | 1006.7 |
| 20260506130025 | 63 | 223 | 3.5 | 7.0 | 0.00 | 0.00 | 0.00 | 81 | 1006.7 |
| 20260506124525 | 62 | 221 | 3.5 | 8.7 | 0.00 | 0.00 | 0.00 | 82 | 1006.6 |
| 20260506123025 | 62 | 193 | 3.5 | 8.7 | 0.00 | 0.00 | 0.00 | 81 | 1006.8 |
| 20260506121524 | 62 | 360 | 2.6 | 7.0 | 0.00 | 0.00 | 0.00 | 82 | 1006.7 |
| 20260506120024 | 61 | 244 | 3.5 | 7.8 | 0.00 | 0.00 | 0.00 | 83 | 1007.1 |
| 20260506114526 | 60 | 215 | 2.6 | 10.4 | 0.00 | 0.00 | 0.00 | 84 | 1007.1 |
| 20260506113023 | 60 | 231 | 1.7 | 6.1 | 0.00 | 0.00 | 0.00 | 85 | 1007.3 |
| 20260506111521 | 60 | 245 | 1.7 | 6.1 | 0.00 | 0.00 | 0.00 | 85 | 1007.5 |
| 20260506110021 | 59 | 360 | 2.6 | 8.7 | 0.00 | 0.00 | 0.00 | 85 | 1007.1 |
| 20260506104541 | 59 | 360 | 2.6 | 5.2 | 0.00 | 0.00 | 0.00 | 85 | 1007.2 |
| 20260506103019 | 58 | 227 | 2.6 | 6.1 | 0.00 | 0.00 | 0.00 | 84 | 1007.3 |
| 20260506101517 | 59 | 212 | 3.5 | 7.0 | 0.00 | 0.00 | 0.00 | 83 | 1007.0 |
| 20260506100018 | 58 | 360 | 2.6 | 6.1 | 0.00 | 0.00 | 0.00 | 83 | 1007.2 |
| 20260506094516 | 58 | 215 | 2.6 | 6.1 | 0.00 | 0.00 | 0.00 | 82 | 1007.0 |
| 20260506093014 | 58 | 196 | 2.6 | 6.1 | 0.00 | 0.00 | 0.00 | 81 | 1007.0 |
| 20260506091513 | 58 | 217 | 1.7 | 4.3 | 0.00 | 0.00 | 0.00 | 80 | 1007.0 |
| 20260506090011 | 58 | 360 | 0.9 | 5.2 | 0.00 | 0.00 | 0.00 | 80 | 1006.9 |
| 20260506084510 | 59 | 360 | 1.7 | 4.3 | 0.00 | 0.00 | 0.00 | 79 | 1007.1 |
| 20260506083016 | 59 | 232 | 2.6 | 7.0 | 0.00 | 0.00 | 0.00 | 77 | 1006.9 |